| time (UTC) | temp C | wind direction | speed KPH | gust KPH | rain 1hr cm | rain 24hr cm | rain mn cm | humidity % | barometer mb |
| 20260506162659 | 16 | 169 | 4.8 | 12.9 | 0.00 | 0.00 | 0.00 | 88 | 1008.2 |
| 20260506162156 | 16 | 158 | 4.8 | 11.3 | 0.00 | 0.00 | 0.00 | 87 | 1008.4 |
| 20260506161653 | 16 | 152 | 4.8 | 17.7 | 0.00 | 0.00 | 0.00 | 87 | 1008.5 |
| 20260506161150 | 16 | 133 | 1.6 | 22.5 | 0.00 | 0.00 | 0.00 | 87 | 1008.6 |
| 20260506160648 | 16 | 148 | 8.0 | 24.1 | 0.00 | 0.00 | 0.00 | 87 | 1008.4 |
| 20260506160145 | 16 | 338 | 9.7 | 16.1 | 0.00 | 0.00 | 0.00 | 86 | 1008.4 |
| 20260506155643 | 16 | 179 | 9.7 | 17.7 | 0.00 | 0.00 | 0.00 | 86 | 1008.5 |
| 20260506155140 | 17 | 124 | 11.3 | 16.1 | 0.00 | 0.00 | 0.00 | 85 | 1008.8 |
| 20260506153242 | 17 | 170 | 3.2 | 8.0 | 0.00 | 0.00 | 0.00 | 85 | 1008.6 |
| 20260506152739 | 16 | 135 | 9.7 | 17.7 | 0.00 | 0.00 | 0.00 | 85 | 1008.8 |
| 20260506152236 | 16 | 192 | 3.2 | 9.7 | 0.00 | 0.00 | 0.00 | 86 | 1009.0 |
| 20260506151735 | 16 | 209 | 6.4 | 17.7 | 0.00 | 0.00 | 0.00 | 86 | 1008.8 |
| 20260506151231 | 16 | 131 | 4.8 | 29.0 | 0.00 | 0.00 | 0.00 | 87 | 1008.8 |
| 20260506150728 | 16 | 188 | 16.1 | 29.0 | 0.00 | 0.00 | 0.00 | 87 | 1008.5 |
| 20260506150225 | 16 | 196 | 12.9 | 16.1 | 0.00 | 0.00 | 0.00 | 86 | 1008.7 |
| 20260506145722 | 16 | 208 | 14.5 | 22.5 | 0.00 | 0.00 | 0.00 | 86 | 1008.5 |
| 20260506145218 | 16 | 181 | 11.3 | 17.7 | 0.00 | 0.00 | 0.00 | 86 | 1008.3 |
| 20260506144716 | 16 | 204 | 6.4 | 11.3 | 0.00 | 0.00 | 0.00 | 86 | 1008.4 |
| 20260506144213 | 16 | 247 | 6.4 | 9.7 | 0.00 | 0.00 | 0.00 | 86 | 1008.6 |
| 20260506143710 | 16 | 185 | 8.0 | 25.7 | 0.00 | 0.00 | 0.00 | 86 | 1008.7 |
| 20260506143208 | 16 | 160 | 8.0 | 16.1 | 0.00 | 0.00 | 0.00 | 86 | 1008.6 |
| 20260506142706 | 17 | 344 | 8.0 | 20.9 | 0.00 | 0.00 | 0.00 | 85 | 1008.8 |
| 20260506142204 | 16 | 175 | 9.7 | 22.5 | 0.00 | 0.00 | 0.00 | 85 | 1008.7 |
| 20260506141702 | 17 | 116 | 4.8 | 9.7 | 0.00 | 0.00 | 0.00 | 85 | 1008.8 |
| 20260506141159 | 16 | 153 | 11.3 | 22.5 | 0.00 | 0.00 | 0.00 | 85 | 1008.5 |
| 20260506140657 | 16 | 124 | 12.9 | 22.5 | 0.00 | 0.00 | 0.00 | 85 | 1008.7 |
| 20260506140154 | 16 | 166 | 9.7 | 12.9 | 0.00 | 0.00 | 0.00 | 85 | 1009.0 |
| 20260506135651 | 16 | 184 | 6.4 | 16.1 | 0.00 | 0.00 | 0.00 | 86 | 1008.9 |
| 20260506135147 | 16 | 161 | 8.0 | 11.3 | 0.00 | 0.00 | 0.00 | 86 | 1009.0 |
| 20260506134644 | 16 | 167 | 16.1 | 17.7 | 0.00 | 0.00 | 0.00 | 87 | 1009.2 |
| 20260506134140 | 16 | 137 | 8.0 | 17.7 | 0.00 | 0.00 | 0.00 | 87 | 1009.1 |
| 20260506133637 | 16 | 244 | 9.7 | 14.5 | 0.00 | 0.00 | 0.00 | 87 | 1009.1 |
| 20260506133134 | 16 | 200 | 8.0 | 12.9 | 0.00 | 0.00 | 0.00 | 88 | 1008.9 |
| 20260506132631 | 16 | 162 | 3.2 | 22.5 | 0.00 | 0.00 | 0.00 | 88 | 1008.7 |
| 20260506132128 | 16 | 119 | 19.3 | 32.2 | 0.00 | 0.00 | 0.00 | 87 | 1008.8 |
| 20260506131625 | 16 | 122 | 4.8 | 17.7 | 0.00 | 0.00 | 0.00 | 88 | 1008.7 |
| 20260506131121 | 16 | 131 | 8.0 | 12.9 | 0.00 | 0.00 | 0.00 | 87 | 1008.6 |
| 20260506130619 | 16 | 208 | 4.8 | 22.5 | 0.00 | 0.00 | 0.00 | 87 | 1009.0 |
| 20260506130116 | 16 | 140 | 9.7 | 22.5 | 0.00 | 0.00 | 0.00 | 87 | 1008.7 |
| 20260506125614 | 16 | 210 | 9.7 | 14.5 | 0.00 | 0.00 | 0.00 | 86 | 1008.7 |
| 20260506125112 | 16 | 150 | 6.4 | 17.7 | 0.00 | 0.00 | 0.00 | 86 | 1009.1 |
| 20260506124609 | 16 | 225 | 11.3 | 16.1 | 0.00 | 0.00 | 0.00 | 86 | 1008.9 |
| 20260506124107 | 16 | 202 | 9.7 | 20.9 | 0.00 | 0.00 | 0.00 | 85 | 1009.1 |
| 20260506123604 | 16 | 179 | 8.0 | 12.9 | 0.00 | 0.00 | 0.00 | 86 | 1009.2 |
| 20260506123103 | 16 | 209 | 4.8 | 16.1 | 0.00 | 0.00 | 0.00 | 86 | 1009.1 |
| 20260506122559 | 16 | 61 | 14.5 | 27.4 | 0.00 | 0.00 | 0.00 | 86 | 1009.2 |
| 20260506122057 | 16 | 174 | 9.7 | 14.5 | 0.00 | 0.00 | 0.00 | 87 | 1009.3 |
| 20260506121554 | 16 | 135 | 6.4 | 14.5 | 0.00 | 0.00 | 0.00 | 87 | 1009.1 |
| 20260506121050 | 16 | 146 | 8.0 | 16.1 | 0.00 | 0.00 | 0.00 | 87 | 1009.3 |
| 20260506120549 | 16 | 165 | 3.2 | 20.9 | 0.00 | 0.00 | 0.00 | 88 | 1009.1 |
| 20260506120045 | 16 | 273 | 4.8 | 12.9 | 0.00 | 0.00 | 0.00 | 88 | 1009.0 |
| 20260506115543 | 16 | 166 | 6.4 | 22.5 | 0.00 | 0.00 | 0.00 | 88 | 1009.0 |
| 20260506115042 | 16 | 172 | 14.5 | 17.7 | 0.00 | 0.00 | 0.00 | 88 | 1009.2 |
| 20260506114539 | 16 | 178 | 14.5 | 25.7 | 0.00 | 0.00 | 0.00 | 89 | 1009.1 |
| 20260506114037 | 15 | 194 | 6.4 | 11.3 | 0.00 | 0.00 | 0.00 | 89 | 1009.1 |
| 20260506113535 | 15 | 132 | 4.8 | 17.7 | 0.00 | 0.00 | 0.00 | 89 | 1008.9 |
| 20260506113032 | 15 | 177 | 4.8 | 17.7 | 0.00 | 0.00 | 0.00 | 90 | 1009.3 |
| 20260506112528 | 15 | 304 | 4.8 | 12.9 | 0.00 | 0.00 | 0.00 | 90 | 1009.1 |
| 20260506112026 | 15 | 143 | 6.4 | 16.1 | 0.00 | 0.00 | 0.00 | 91 | 1009.4 |
| 20260506111524 | 15 | 173 | 11.3 | 20.9 | 0.00 | 0.00 | 0.00 | 92 | 1009.1 |
| 20260506111020 | 15 | 215 | 11.3 | 17.7 | 0.00 | 0.00 | 0.00 | 92 | 1009.3 |
| 20260506110518 | 15 | 128 | 1.6 | 17.7 | 0.00 | 0.00 | 0.00 | 93 | 1009.2 |
| 20260506110015 | 14 | 187 | 9.7 | 20.9 | 0.00 | 0.00 | 0.00 | 93 | 1009.2 |
| 20260506105511 | 14 | 180 | 8.0 | 11.3 | 0.00 | 0.00 | 0.00 | 93 | 1009.3 |
| 20260506105009 | 14 | 159 | 11.3 | 14.5 | 0.00 | 0.00 | 0.00 | 93 | 1009.3 |
| 20260506104507 | 14 | 168 | 6.4 | 20.9 | 0.00 | 0.00 | 0.00 | 93 | 1009.0 |
| 20260506104004 | 14 | 202 | 6.4 | 9.7 | 0.00 | 0.00 | 0.00 | 94 | 1009.3 |
| 20260506103501 | 14 | 163 | 4.8 | 16.1 | 0.00 | 0.00 | 0.00 | 94 | 1009.1 |
| 20260506102958 | 14 | 128 | 4.8 | 16.1 | 0.00 | 0.00 | 0.00 | 94 | 1008.9 |
| 20260506102456 | 14 | 189 | 11.3 | 12.9 | 0.00 | 0.00 | 0.00 | 94 | 1009.0 |
| 20260506101953 | 14 | 157 | 3.2 | 16.1 | 0.00 | 0.00 | 0.00 | 94 | 1009.0 |
| 20260506101449 | 14 | 167 | 9.7 | 22.5 | 0.00 | 0.00 | 0.00 | 94 | 1009.0 |
| 20260506100947 | 14 | 168 | 8.0 | 14.5 | 0.00 | 0.00 | 0.00 | 94 | 1009.0 |
| 20260506100445 | 14 | 169 | 8.0 | 17.7 | 0.00 | 0.00 | 0.00 | 94 | 1009.1 |
| 20260506095943 | 14 | 161 | 3.2 | 14.5 | 0.00 | 0.00 | 0.00 | 94 | 1009.0 |
| 20260506095441 | 14 | 210 | 4.8 | 16.1 | 0.00 | 0.00 | 0.00 | 94 | 1009.1 |
| 20260506094937 | 14 | 171 | 4.8 | 12.9 | 0.00 | 0.00 | 0.00 | 94 | 1009.1 |
| 20260506094436 | 14 | 134 | 3.2 | 11.3 | 0.00 | 0.00 | 0.00 | 94 | 1009.0 |
| 20260506093933 | 14 | 148 | 11.3 | 14.5 | 0.00 | 0.00 | 0.00 | 94 | 1008.9 |
| 20260506093431 | 14 | 196 | 8.0 | 24.1 | 0.00 | 0.00 | 0.00 | 94 | 1008.9 |
| 20260506092928 | 14 | 9 | 4.8 | 27.4 | 0.00 | 0.00 | 0.00 | 94 | 1008.9 |
| 20260506092426 | 14 | 177 | 4.8 | 16.1 | 0.00 | 0.00 | 0.00 | 94 | 1008.9 |
| 20260506091922 | 14 | 193 | 4.8 | 14.5 | 0.00 | 0.00 | 0.00 | 94 | 1008.8 |
| 20260506091421 | 14 | 112 | 11.3 | 22.5 | 0.00 | 0.00 | 0.00 | 94 | 1008.8 |
| 20260506090917 | 14 | 149 | 6.4 | 14.5 | 0.00 | 0.00 | 0.00 | 94 | 1008.8 |
| 20260506090415 | 14 | 133 | 8.0 | 12.9 | 0.00 | 0.00 | 0.00 | 93 | 1009.2 |
| 20260506085912 | 14 | 134 | 6.4 | 12.9 | 0.00 | 0.00 | 0.00 | 93 | 1009.1 |
| 20260506085408 | 14 | 215 | 6.4 | 14.5 | 0.00 | 0.00 | 0.00 | 93 | 1009.1 |
| 20260506084904 | 14 | 174 | 3.2 | 14.5 | 0.00 | 0.00 | 0.00 | 93 | 1009.0 |
| 20260506084401 | 14 | 144 | 11.3 | 16.1 | 0.00 | 0.00 | 0.00 | 93 | 1009.4 |
| 20260506083858 | 14 | 145 | 4.8 | 9.7 | 0.00 | 0.00 | 0.00 | 93 | 1009.4 |
| 20260506083355 | 14 | 193 | 6.4 | 25.7 | 0.00 | 0.00 | 0.00 | 93 | 1009.2 |
| 20260506082852 | 14 | 127 | 11.3 | 20.9 | 0.00 | 0.00 | 0.00 | 92 | 1009.2 |
| 20260506082349 | 14 | 190 | 6.4 | 14.5 | 0.00 | 0.00 | 0.00 | 92 | 1009.3 |
| 20260506081845 | 14 | 232 | 11.3 | 20.9 | 0.00 | 0.00 | 0.00 | 92 | 1009.2 |
| 20260506081343 | 14 | 140 | 6.4 | 12.9 | 0.00 | 0.00 | 0.00 | 92 | 1009.2 |
| 20260506080835 | 14 | 249 | 9.7 | 12.9 | 0.00 | 0.00 | 0.00 | 92 | 1009.4 |
| 20260506080331 | 14 | 188 | 8.0 | 11.3 | 0.00 | 0.00 | 0.00 | 92 | 1009.4 |
| 20260506073316 | 14 | 161 | 11.3 | 12.9 | 0.00 | 0.00 | 0.00 | 91 | 1009.5 |
| 20260506072812 | 15 | 209 | 12.9 | 27.4 | 0.00 | 0.00 | 0.00 | 90 | 1009.6 |
| 20260506072310 | 15 | 157 | 11.3 | 22.5 | 0.00 | 0.00 | 0.00 | 90 | 1009.5 |
| 20260506071807 | 15 | 170 | 11.3 | 24.1 | 0.00 | 0.00 | 0.00 | 90 | 1009.5 |
| 20260506071306 | 15 | 183 | 14.5 | 24.1 | 0.00 | 0.00 | 0.00 | 90 | 1009.5 |
| 20260506070802 | 15 | 138 | 11.3 | 20.9 | 0.00 | 0.00 | 0.00 | 90 | 1009.4 |
| 20260506070259 | 15 | 178 | 4.8 | 16.1 | 0.00 | 0.00 | 0.00 | 90 | 1009.6 |
| 20260506062236 | 15 | 160 | 11.3 | 16.1 | 0.00 | 0.00 | 0.00 | 88 | 1009.5 |
| 20260506061732 | 15 | 148 | 8.0 | 9.7 | 0.00 | 0.00 | 0.00 | 88 | 1009.4 |
| 20260506061230 | 15 | 173 | 11.3 | 17.7 | 0.00 | 0.00 | 0.00 | 88 | 1009.3 |
| 20260506060728 | 15 | 175 | 6.4 | 17.7 | 0.00 | 0.00 | 0.00 | 88 | 1009.3 |
| 20260506060225 | 15 | 149 | 14.5 | 20.9 | 0.00 | 0.00 | 0.00 | 87 | 1009.4 |
| 20260506051156 | 15 | 176 | 8.0 | 20.9 | 0.00 | 0.00 | 0.00 | 85 | 1009.8 |
| 20260506050655 | 15 | 137 | 16.1 | 20.9 | 0.00 | 0.00 | 0.00 | 85 | 1009.8 |
| 20260506050151 | 16 | 127 | 8.0 | 25.7 | 0.00 | 0.00 | 0.00 | 85 | 1009.9 |
| 20260506044643 | 16 | 189 | 4.8 | 11.3 | 0.00 | 0.00 | 0.00 | 84 | 1009.8 |
| 20260506044139 | 16 | 111 | 9.7 | 22.5 | 0.00 | 0.00 | 0.00 | 83 | 1009.8 |
| 20260506043637 | 16 | 173 | 14.5 | 24.1 | 0.00 | 0.00 | 0.00 | 84 | 1009.6 |
| 20260506043135 | 16 | 165 | 16.1 | 24.1 | 0.00 | 0.00 | 0.00 | 83 | 1009.5 |
| 20260506042633 | 16 | 152 | 6.4 | 14.5 | 0.00 | 0.00 | 0.00 | 83 | 1009.7 |
| 20260506042131 | 16 | 202 | 6.4 | 12.9 | 0.00 | 0.00 | 0.00 | 84 | 1009.8 |
| 20260506041630 | 16 | 210 | 6.4 | 16.1 | 0.00 | 0.00 | 0.00 | 83 | 1009.8 |
| 20260506041126 | 16 | 230 | 11.3 | 16.1 | 0.00 | 0.00 | 0.00 | 83 | 1009.9 |
| 20260506040624 | 16 | 158 | 8.0 | 24.1 | 0.00 | 0.00 | 0.00 | 83 | 1009.7 |
| 20260506040120 | 16 | 155 | 11.3 | 20.9 | 0.00 | 0.00 | 0.00 | 83 | 1009.9 |
| 20260506035617 | 16 | 127 | 4.8 | 17.7 | 0.00 | 0.00 | 0.00 | 83 | 1009.9 |
| 20260506035113 | 16 | 144 | 12.9 | 20.9 | 0.00 | 0.00 | 0.00 | 82 | 1009.8 |
| 20260506034611 | 16 | 132 | 8.0 | 20.9 | 0.00 | 0.00 | 0.00 | 82 | 1009.8 |
| 20260506034108 | 16 | 124 | 8.0 | 16.1 | 0.00 | 0.00 | 0.00 | 82 | 1009.7 |
| 20260506033605 | 16 | 148 | 9.7 | 17.7 | 0.00 | 0.00 | 0.00 | 82 | 1009.8 |
| 20260506033102 | 16 | 165 | 1.6 | 24.1 | 0.00 | 0.00 | 0.00 | 82 | 1009.8 |
| 20260506032559 | 16 | 152 | 4.8 | 12.9 | 0.00 | 0.00 | 0.00 | 82 | 1009.6 |
| 20260506032056 | 16 | 155 | 9.7 | 17.7 | 0.00 | 0.00 | 0.00 | 82 | 1009.7 |
| 20260506031554 | 16 | 232 | 4.8 | 11.3 | 0.00 | 0.00 | 0.00 | 82 | 1009.7 |
| 20260506031050 | 16 | 153 | 14.5 | 16.1 | 0.00 | 0.00 | 0.00 | 82 | 1009.6 |
| 20260506030549 | 16 | 150 | 6.4 | 8.0 | 0.00 | 0.00 | 0.00 | 82 | 1009.7 |
| 20260506030045 | 16 | 210 | 12.9 | 24.1 | 0.00 | 0.00 | 0.00 | 82 | 1009.8 |
| 20260506025542 | 16 | 141 | 8.0 | 16.1 | 0.00 | 0.00 | 0.00 | 82 | 1009.8 |
| 20260506025038 | 16 | 166 | 9.7 | 14.5 | 0.00 | 0.00 | 0.00 | 82 | 1009.9 |
| 20260506024536 | 16 | 102 | 6.4 | 14.5 | 0.00 | 0.00 | 0.00 | 82 | 1009.8 |
| 20260506024032 | 16 | 195 | 9.7 | 16.1 | 0.00 | 0.00 | 0.00 | 82 | 1009.9 |
| 20260506023528 | 16 | 194 | 11.3 | 16.1 | 0.00 | 0.00 | 0.00 | 81 | 1009.9 |
| 20260506023026 | 16 | 145 | 12.9 | 25.7 | 0.00 | 0.00 | 0.00 | 81 | 1010.0 |
| 20260506022523 | 17 | 132 | 8.0 | 25.7 | 0.00 | 0.00 | 0.00 | 80 | 1009.7 |
| 20260506022020 | 16 | 167 | 6.4 | 16.1 | 0.00 | 0.00 | 0.00 | 80 | 1009.8 |
| 20260506021518 | 17 | 135 | 4.8 | 29.0 | 0.00 | 0.00 | 0.00 | 79 | 1009.7 |
| 20260506021015 | 17 | 126 | 11.3 | 24.1 | 0.00 | 0.00 | 0.00 | 79 | 1009.7 |
| 20260506020512 | 17 | 151 | 4.8 | 14.5 | 0.00 | 0.00 | 0.00 | 78 | 1009.9 |
| 20260506020010 | 17 | 203 | 11.3 | 17.7 | 0.00 | 0.00 | 0.00 | 77 | 1009.8 |
| 20260506015507 | 17 | 176 | 6.4 | 24.1 | 0.00 | 0.00 | 0.00 | 76 | 1009.9 |
| 20260506015004 | 17 | 171 | 6.4 | 17.7 | 0.00 | 0.00 | 0.00 | 75 | 1009.9 |
| 20260506014501 | 17 | 142 | 8.0 | 14.5 | 0.00 | 0.00 | 0.00 | 74 | 1009.7 |
| 20260506013957 | 17 | 166 | 4.8 | 14.5 | 0.00 | 0.00 | 0.00 | 73 | 1009.7 |
| 20260506013455 | 17 | 134 | 14.5 | 29.0 | 0.00 | 0.00 | 0.00 | 72 | 1009.5 |
| 20260506012951 | 18 | 134 | 4.8 | 12.9 | 0.00 | 0.00 | 0.00 | 72 | 1009.6 |
| 20260506012447 | 18 | 146 | 17.7 | 27.4 | 0.00 | 0.00 | 0.00 | 71 | 1009.5 |
| 20260506011944 | 18 | 176 | 8.0 | 22.5 | 0.00 | 0.00 | 0.00 | 71 | 1009.3 |
| 20260506011442 | 18 | 197 | 6.4 | 17.7 | 0.00 | 0.00 | 0.00 | 71 | 1009.3 |
| 20260506010938 | 18 | 207 | 4.8 | 20.9 | 0.00 | 0.00 | 0.00 | 72 | 1009.2 |
| 20260506010438 | 17 | 155 | 6.4 | 11.3 | 0.00 | 0.00 | 0.00 | 73 | 1009.1 |
| 20260506005933 | 17 | 158 | 8.0 | 20.9 | 0.00 | 0.00 | 0.00 | 73 | 1009.2 |
| 20260506005432 | 17 | 139 | 6.4 | 29.0 | 0.00 | 0.00 | 0.00 | 73 | 1009.1 |
| 20260506004926 | 17 | 342 | 8.0 | 17.7 | 0.00 | 0.00 | 0.00 | 74 | 1008.8 |
| 20260506004425 | 17 | 180 | 14.5 | 25.7 | 0.00 | 0.00 | 0.00 | 74 | 1008.9 |
| 20260506003920 | 17 | 181 | 8.0 | 29.0 | 0.00 | 0.00 | 0.00 | 74 | 1009.1 |
| 20260506003417 | 17 | 200 | 17.7 | 24.1 | 0.00 | 0.00 | 0.00 | 74 | 1008.8 |
| 20260506002914 | 17 | 179 | 16.1 | 25.7 | 0.00 | 0.00 | 0.00 | 73 | 1008.9 |
| 20260506002410 | 17 | 209 | 14.5 | 27.4 | 0.00 | 0.00 | 0.00 | 73 | 1009.0 |
| 20260506001905 | 17 | 151 | 9.7 | 24.1 | 0.00 | 0.00 | 0.00 | 73 | 1008.7 |
| 20260506001402 | 17 | 139 | 3.2 | 38.6 | 0.00 | 0.00 | 0.00 | 73 | 1008.4 |
| 20260506000859 | 17 | 181 | 11.3 | 17.7 | 0.00 | 0.00 | 0.00 | 73 | 1008.3 |
| 20260506000357 | 17 | 121 | 6.4 | 22.5 | 0.00 | 0.00 | 0.00 | 73 | 1008.5 |
| 20260505235854 | 17 | 159 | 16.1 | 22.5 | 0.00 | 0.00 | 0.00 | 72 | 1008.6 |
| 20260505235352 | 17 | 180 | 6.4 | 14.5 | 0.00 | 0.00 | 0.00 | 73 | 1008.1 |
| 20260505234848 | 17 | 151 | 4.8 | 22.5 | 0.00 | 0.00 | 0.00 | 72 | 1008.1 |
| 20260505234346 | 17 | 155 | 9.7 | 17.7 | 0.00 | 0.00 | 0.00 | 73 | 1008.2 |
| 20260505233842 | 17 | 187 | 8.0 | 14.5 | 0.00 | 0.00 | 0.00 | 72 | 1008.0 |
| 20260505233340 | 17 | 195 | 9.7 | 22.5 | 0.00 | 0.00 | 0.00 | 73 | 1008.2 |
| 20260505232838 | 17 | 182 | 6.4 | 16.1 | 0.00 | 0.00 | 0.00 | 73 | 1008.0 |
| 20260505232335 | 17 | 225 | 8.0 | 14.5 | 0.00 | 0.00 | 0.00 | 72 | 1008.2 |
| 20260505231832 | 17 | 175 | 6.4 | 14.5 | 0.00 | 0.00 | 0.00 | 72 | 1008.2 |
| 20260505231330 | 18 | 162 | 8.0 | 12.9 | 0.00 | 0.00 | 0.00 | 71 | 1008.0 |
| 20260505230827 | 18 | 189 | 8.0 | 14.5 | 0.00 | 0.00 | 0.00 | 71 | 1007.8 |
| 20260505230324 | 18 | 234 | 12.9 | 33.8 | 0.00 | 0.00 | 0.00 | 70 | 1007.7 |
| 20260505225821 | 18 | 162 | 9.7 | 17.7 | 0.00 | 0.00 | 0.00 | 69 | 1007.7 |
| 20260505225318 | 18 | 153 | 6.4 | 16.1 | 0.00 | 0.00 | 0.00 | 70 | 1007.9 |
| 20260505224813 | 18 | 175 | 8.0 | 14.5 | 0.00 | 0.00 | 0.00 | 69 | 1007.9 |
| 20260505224311 | 18 | 182 | 14.5 | 25.7 | 0.00 | 0.00 | 0.00 | 68 | 1007.6 |
| 20260505223808 | 18 | 157 | 8.0 | 12.9 | 0.00 | 0.00 | 0.00 | 69 | 1007.7 |
| 20260505223305 | 18 | 192 | 6.4 | 9.7 | 0.00 | 0.00 | 0.00 | 69 | 1007.6 |
| 20260505222801 | 18 | 186 | 12.9 | 16.1 | 0.00 | 0.00 | 0.00 | 68 | 1007.5 |
| 20260505222257 | 18 | 225 | 11.3 | 17.7 | 0.00 | 0.00 | 0.00 | 68 | 1007.4 |
| 20260505221755 | 19 | 199 | 16.1 | 20.9 | 0.00 | 0.00 | 0.00 | 68 | 1007.5 |
| 20260505221251 | 19 | 118 | 8.0 | 12.9 | 0.00 | 0.00 | 0.00 | 67 | 1007.6 |
| 20260505220748 | 19 | 155 | 9.7 | 17.7 | 0.00 | 0.00 | 0.00 | 67 | 1007.3 |
| 20260505220245 | 20 | 312 | 8.0 | 17.7 | 0.00 | 0.00 | 0.00 | 67 | 1007.4 |
| 20260505215743 | 20 | 180 | 16.1 | 24.1 | 0.00 | 0.00 | 0.00 | 66 | 1007.3 |
| 20260505215241 | 20 | 124 | 4.8 | 12.9 | 0.00 | 0.00 | 0.00 | 66 | 1007.5 |
| 20260505214739 | 20 | 179 | 8.0 | 24.1 | 0.00 | 0.00 | 0.00 | 66 | 1007.3 |
| 20260505214236 | 20 | 212 | 9.7 | 16.1 | 0.00 | 0.00 | 0.00 | 66 | 1007.2 |
| 20260505213733 | 20 | 201 | 4.8 | 16.1 | 0.00 | 0.00 | 0.00 | 66 | 1007.2 |
| 20260505213230 | 20 | 131 | 3.2 | 3.2 | 0.00 | 0.00 | 0.00 | 66 | 1007.1 |
| 20260505212726 | 20 | 109 | 11.3 | 17.7 | 0.00 | 0.00 | 0.00 | 67 | 1007.0 |
| 20260505212224 | 20 | 170 | 9.7 | 27.4 | 0.00 | 0.00 | 0.00 | 66 | 1007.2 |
| 20260505211720 | 20 | 158 | 11.3 | 12.9 | 0.00 | 0.00 | 0.00 | 66 | 1007.1 |
| 20260505211218 | 20 | 185 | 12.9 | 22.5 | 0.00 | 0.00 | 0.00 | 65 | 1007.2 |
| 20260505210714 | 20 | 162 | 11.3 | 16.1 | 0.00 | 0.00 | 0.00 | 65 | 1007.0 |
| 20260505210211 | 20 | 148 | 6.4 | 20.9 | 0.00 | 0.00 | 0.00 | 66 | 1007.1 |
| 20260505205708 | 20 | 145 | 12.9 | 24.1 | 0.00 | 0.00 | 0.00 | 66 | 1007.0 |
| 20260505205207 | 20 | 155 | 4.8 | 16.1 | 0.00 | 0.00 | 0.00 | 67 | 1007.3 |
| 20260505204703 | 20 | 147 | 9.7 | 20.9 | 0.00 | 0.00 | 0.00 | 66 | 1007.4 |
| 20260505204201 | 20 | 125 | 8.0 | 12.9 | 0.00 | 0.00 | 0.00 | 67 | 1007.0 |
| 20260505203658 | 20 | 194 | 11.3 | 17.7 | 0.00 | 0.00 | 0.00 | 67 | 1007.0 |
| 20260505203154 | 20 | 221 | 8.0 | 17.7 | 0.00 | 0.00 | 0.00 | 67 | 1007.0 |
| 20260505202650 | 20 | 196 | 6.4 | 14.5 | 0.00 | 0.00 | 0.00 | 67 | 1007.1 |
| 20260505202146 | 20 | 128 | 11.3 | 22.5 | 0.00 | 0.00 | 0.00 | 66 | 1007.0 |
| 20260505201643 | 20 | 196 | 4.8 | 14.5 | 0.00 | 0.00 | 0.00 | 67 | 1007.3 |
| 20260505201141 | 21 | 147 | 16.1 | 20.9 | 0.00 | 0.00 | 0.00 | 65 | 1007.5 |
| 20260505200639 | 20 | 161 | 1.6 | 14.5 | 0.00 | 0.00 | 0.00 | 66 | 1007.4 |
| 20260505200135 | 21 | 273 | 9.7 | 24.1 | 0.00 | 0.00 | 0.00 | 65 | 1007.7 |
| 20260505195632 | 21 | 229 | 9.7 | 20.9 | 0.00 | 0.00 | 0.00 | 65 | 1007.3 |
| 20260505195129 | 21 | 154 | 8.0 | 11.3 | 0.00 | 0.00 | 0.00 | 65 | 1007.6 |
| 20260505194626 | 21 | 152 | 8.0 | 12.9 | 0.00 | 0.00 | 0.00 | 64 | 1007.5 |
| 20260505194122 | 20 | 167 | 8.0 | 22.5 | 0.00 | 0.00 | 0.00 | 65 | 1007.7 |
| 20260505193619 | 20 | 214 | 4.8 | 17.7 | 0.00 | 0.00 | 0.00 | 66 | 1007.5 |
| 20260505193116 | 20 | 124 | 4.8 | 16.1 | 0.00 | 0.00 | 0.00 | 66 | 1008.0 |
| 20260505192615 | 21 | 162 | 11.3 | 16.1 | 0.00 | 0.00 | 0.00 | 65 | 1008.1 |
| 20260505192111 | 20 | 200 | 11.3 | 20.9 | 0.00 | 0.00 | 0.00 | 66 | 1008.1 |
| 20260505191610 | 21 | 275 | 12.9 | 17.7 | 0.00 | 0.00 | 0.00 | 64 | 1008.0 |
| 20260505191107 | 21 | 158 | 6.4 | 22.5 | 0.00 | 0.00 | 0.00 | 65 | 1007.9 |
| 20260505190602 | 21 | 166 | 11.3 | 24.1 | 0.00 | 0.00 | 0.00 | 64 | 1008.3 |
| 20260505190058 | 21 | 157 | 6.4 | 24.1 | 0.00 | 0.00 | 0.00 | 64 | 1008.1 |
| 20260505185555 | 21 | 122 | 3.2 | 11.3 | 0.00 | 0.00 | 0.00 | 64 | 1008.3 |
| 20260505185051 | 21 | 249 | 12.9 | 17.7 | 0.00 | 0.00 | 0.00 | 65 | 1008.2 |
| 20260505184542 | 21 | 126 | 12.9 | 16.1 | 0.00 | 0.00 | 0.00 | 63 | 1008.2 |
| 20260505184039 | 21 | 159 | 9.7 | 17.7 | 0.00 | 0.00 | 0.00 | 64 | 1008.3 |
| 20260505183536 | 22 | 146 | 4.8 | 11.3 | 0.00 | 0.00 | 0.00 | 63 | 1008.2 |
| 20260505183033 | 22 | 169 | 6.4 | 17.7 | 0.00 | 0.00 | 0.00 | 64 | 1008.4 |
| 20260505182529 | 21 | 175 | 8.0 | 12.9 | 0.00 | 0.00 | 0.00 | 64 | 1008.3 |
| 20260505182026 | 21 | 149 | 6.4 | 11.3 | 0.00 | 0.00 | 0.00 | 66 | 1008.4 |
| 20260505181523 | 21 | 170 | 6.4 | 12.9 | 0.00 | 0.00 | 0.00 | 66 | 1008.4 |
| 20260505181020 | 21 | 176 | 9.7 | 22.5 | 0.00 | 0.00 | 0.00 | 66 | 1008.8 |
| 20260505180516 | 21 | 99 | 12.9 | 17.7 | 0.00 | 0.00 | 0.00 | 65 | 1008.6 |
| 20260505180015 | 21 | 157 | 11.3 | 14.5 | 0.00 | 0.00 | 0.00 | 66 | 1009.1 |
| 20260505175509 | 21 | 189 | 4.8 | 17.7 | 0.00 | 0.00 | 0.00 | 67 | 1008.7 |
| 20260505175006 | 22 | 181 | 6.4 | 12.9 | 0.00 | 0.00 | 0.00 | 65 | 1008.7 |
| 20260505174503 | 21 | 169 | 4.8 | 11.3 | 0.00 | 0.00 | 0.00 | 65 | 1008.5 |
| 20260505173959 | 21 | 158 | 11.3 | 17.7 | 0.00 | 0.00 | 0.00 | 65 | 1008.5 |
| 20260505173455 | 21 | 229 | 8.0 | 22.5 | 0.00 | 0.00 | 0.00 | 65 | 1008.6 |
| 20260505172952 | 22 | 191 | 3.2 | 14.5 | 0.00 | 0.00 | 0.00 | 65 | 1008.8 |
| 20260505172451 | 22 | 151 | 8.0 | 11.3 | 0.00 | 0.00 | 0.00 | 63 | 1008.7 |
| 20260505171950 | 21 | 155 | 4.8 | 11.3 | 0.00 | 0.00 | 0.00 | 66 | 1008.9 |
| 20260505171447 | 21 | 191 | 9.7 | 16.1 | 0.00 | 0.00 | 0.00 | 64 | 1008.9 |
| 20260505170944 | 21 | 178 | 6.4 | 11.3 | 0.00 | 0.00 | 0.00 | 64 | 1008.9 |
| 20260505170441 | 22 | 142 | 1.6 | 8.0 | 0.00 | 0.00 | 0.00 | 65 | 1008.7 |
| 20260505165936 | 21 | 176 | 8.0 | 11.3 | 0.00 | 0.00 | 0.00 | 66 | 1008.8 |
| 20260505165432 | 21 | 192 | 9.7 | 11.3 | 0.00 | 0.00 | 0.00 | 67 | 1009.0 |
| 20260505164927 | 21 | 154 | 4.8 | 17.7 | 0.00 | 0.00 | 0.00 | 66 | 1009.4 |
| 20260505164424 | 22 | 166 | 4.8 | 12.9 | 0.00 | 0.00 | 0.00 | 67 | 1009.2 |
| 20260505163922 | 22 | 157 | 8.0 | 12.9 | 0.00 | 0.00 | 0.00 | 62 | 1009.1 |
| 20260505163421 | 22 | 200 | 3.2 | 12.9 | 0.00 | 0.00 | 0.00 | 62 | 1009.1 |
| 20260505162920 | 22 | 138 | 11.3 | 12.9 | 0.00 | 0.00 | 0.00 | 62 | 1009.2 |